This demonstration page uses our WeatherBlox Daily Observations layout. Learn more.

Left ArrowRight Arrow

39.01783, -85.05884

Hourly Observations for May 8, 2019

Temp ( °F °C ) Dew Point ( °F °C ) Humidity (%) Winds ( mph kmh ) Pressure ( in mb ) Visibility ( mi km ) Precip ( " mm )
12:52 am 00:52 Mostly Clear 64 17.8 53 11.7 68 68 NE 9 15 30.10 1019 10 16 0.00 0.00
1:52 am 01:52 Mostly Clear 62 16.7 52 11.1 70 70 NE 10 17 30.08 1019 10 16 0.00 0.00
2:52 am 02:52 Partly Cloudy 60 15.6 51 10.6 72 72 NE 9 15 30.08 1019 10 16 0.00 0.00
3:52 am 03:52 Partly Cloudy 59 15 51 10.6 75 75 NE 7 11 30.09 1019 10 16 0.00 0.00
4:52 am 04:52 Partly Cloudy 58 14.4 50 10 75 75 NE 10 17 30.09 1019 10 16 0.00 0.00
5:52 am 05:52 Partly Cloudy 57 13.9 49 9.4 74 74 NE 10 17 30.09 1019 10 16 0.00 0.00
6:52 am 06:52 Partly Cloudy 56 13.3 49 9.4 77 77 ENE 9 15 30.10 1019 10 16 0.00 0.00
7:52 am 07:52 Partly Cloudy 57 13.9 48 8.9 72 72 NE 10 17 30.10 1019 10 16 0.00 0.00
8:52 am 08:52 Mostly Sunny 60 15.6 50 10 70 70 E 9 15 30.09 1019 10 16 0.00 0.00
9:52 am 09:52 Mostly Sunny 63 17.2 52 11.1 68 68 E 8 13 30.09 1019 10 16 0.00 0.00
10:52 am 10:52 Partly Cloudy 67 19.4 54 12.2 63 63 ESE 5 7 30.08 1019 10 16 0.00 0.00
11:52 am 11:52 Partly Cloudy 72 22.2 56 13.3 57 57 E 5 7 30.08 1019 10 16 0.00 0.00
12:52 pm 12:52 Mostly Sunny 75 23.9 58 14.4 55 55 SE 9 15 30.04 1017 10 16 0.00 0.00
1:52 pm 13:52 Partly Cloudy 79 26.1 58 14.4 49 49 SE 13 20 30.00 1016 10 16 0.00 0.00
2:52 pm 14:52 Partly Cloudy 80 26.7 58 14.4 47 47 S 9 15 29.98 1015 10 16 0.00 0.00
3:52 pm 15:52 Mostly Cloudy 81 27.2 57 13.9 44 44 SSE 13 20 29.96 1014 10 16 0.00 0.00
4:52 pm 16:52 Mostly Cloudy 81 27.2 59 15 47 47 S 13 20 29.93 1014 10 16 0.00 0.00
5:52 pm 17:52 Mostly Cloudy 81 27.2 60 15.6 49 49 SE 18 30 29.92 1013 10 16 0.00 0.00
6:52 pm 18:52 Mostly Cloudy 80 26.7 59 15 49 49 SE 16 26 29.91 1013 10 16 0.00 0.00
7:52 pm 19:52 Cloudy 78 25.6 59 15 52 52 SSE 13 20 29.90 1013 10 16 0.00 0.00
8:52 pm 20:52 Cloudy 77 25 58 14.4 52 52 SE 10 17 29.89 1012 10 16 0.00 0.00
9:52 pm 21:52 Clear 74 23.3 59 15 60 60 SE 8 13 29.91 1013 10 16 0.00 0.00
10:52 pm 22:52 Clear 74 23.3 58 14.4 57 57 SSE 10 17 29.91 1013 10 16 0.00 0.00
11:52 pm 23:52 Partly Cloudy 72 22.2 58 14.4 61 61 SSE 12 19 29.89 1012 10 16 0.00 0.00

Powered by AerisWeather